POPACS 1

Last updated on Sun Dec 14 2025 00:03:49 GMT+0000 (Coordinated Universal Time)

1 39268U 13055D 25347.04439059 .00271097 23408-4 79224-3 0 9991 2 39268 80.9545 211.2427 0115069 45.2010 315.8537 15.82410763643624
UTC large
Height (km)
Speed (km/s)
/
Latitude / Longitude
Inclination (degrees)
Orbital Period (minutes)
Azimuth
Elevation
Range (km)
Doppler Factor

Next 0 passes for location: London (51.5072 / 0.1276)

Sorry there are no passes over London.